When you browse on this site, cookies collect data to enhance your experience and personalize the content and advertising you see.
Visit our Privacy Policy to learn more. By continuing to use the site, you agree to this use of cookies and data.
  • In Germany
  • List of Countries
  • For 7 days
  • Water Temperature
  • Satellite Maps
  • Weather Map
  • Weather Widgets
  • user-avatar
    Login

    Hourly Weather Mendoza

    Today, 20 May, Monday

    Time Temperature Precipitation Wind Pressure Humidity
    00:00 +12°C° 0 mm 2 mps 697 mmHg 63%
    01:00 +10°C° 0 mm 3 mps 697 mmHg 63%
    02:00 +10°C° 0 mm 3 mps 697 mmHg 63%
    03:00 +10°C° 0 mm 3 mps 697 mmHg 63%
    04:00 +10°C° 0 mm 4 mps 697 mmHg 63%
    05:00 +10°C° 0 mm 4 mps 697 mmHg 62%
    06:00 +8°C° 0 mm 4 mps 697 mmHg 61%
    07:00 +8°C° 0 mm 5 mps 698 mmHg 61%
    08:00 +10°C° 0 mm 5 mps 698 mmHg 55%
    09:00 +11°C° 0 mm 6 mps 699 mmHg 50%
    10:00 +12°C° 0 mm 7 mps 699 mmHg 45%
    11:00 +12°C° 0 mm 7 mps 699 mmHg 47%
    12:00 +12°C° 0 mm 8 mps 699 mmHg 49%
    13:00 +12°C° 0 mm 8 mps 699 mmHg 51%
    14:00 +11°C° 0.1 mm 8 mps 699 mmHg 56%
    15:00 +8°C° 0.1 mm 9 mps 699 mmHg 60%
    16:00 +7°C° 0.1 mm 9 mps 700 mmHg 64%
    17:00 +7°C° 0.1 mm 9 mps 700 mmHg 66%
    18:00 +6°C° 0.1 mm 9 mps 701 mmHg 69%
    19:00 +6°C° 0.1 mm 8 mps 702 mmHg 71%
    20:00 +6°C° 0 mm 8 mps 702 mmHg 71%
    21:00 +5°C° 0 mm 7 mps 702 mmHg 72%
    22:00 +5°C° 0 mm 6 mps 703 mmHg 72%
    23:00 +5°C° 0 mm 6 mps 703 mmHg 73%

    Tomorrow, 21 May, Tuesday

    Time Temperature Precipitation Wind Pressure Humidity
    00:00 +5°C° 0 mm 6 mps 703 mmHg 74%
    01:00 +5°C° 0 mm 6 mps 703 mmHg 75%
    02:00 +4°C° 0 mm 6 mps 703 mmHg 76%
    03:00 +4°C° 0 mm 6 mps 703 mmHg 76%
    04:00 +5°C° 0 mm 5 mps 703 mmHg 76%
    05:00 +5°C° 0 mm 5 mps 704 mmHg 74%
    06:00 +5°C° 0 mm 5 mps 704 mmHg 72%
    07:00 +5°C° 0 mm 5 mps 704 mmHg 70%
    08:00 +6°C° 0 mm 5 mps 705 mmHg 65%
    09:00 +7°C° 0 mm 5 mps 705 mmHg 59%
    10:00 +8°C° 0 mm 6 mps 706 mmHg 54%
    11:00 +9°C° 0 mm 5 mps 705 mmHg 53%
    12:00 +9°C° 0 mm 5 mps 705 mmHg 52%
    13:00 +10°C° 0 mm 5 mps 705 mmHg 51%
    14:00 +9°C° 0 mm 5 mps 704 mmHg 55%
    15:00 +9°C° 0 mm 5 mps 704 mmHg 58%
    16:00 +8°C° 0 mm 5 mps 704 mmHg 61%
    17:00 +7°C° 0 mm 4 mps 705 mmHg 66%
    18:00 +8°C° 0 mm 3 mps 705 mmHg 70%
    19:00 +7°C° 0 mm 2 mps 705 mmHg 75%
    20:00 +7°C° 0 mm 2 mps 705 mmHg 79%
    21:00 +7°C° 0 mm 1 mps 705 mmHg 83%
    22:00 +7°C° 0 mm 1 mps 705 mmHg 87%
    23:00 +7°C° 0 mm 1 mps 705 mmHg 87%

    Day after tomorrow, 22 May, Wednesday

    Time Temperature Precipitation Wind Pressure Humidity
    00:00 +7°C° 0 mm 1 mps 705 mmHg 88%
    01:00 +6°C° 0 mm 1 mps 705 mmHg 88%
    02:00 +6°C° 0 mm 1 mps 705 mmHg 88%
    03:00 +6°C° 0 mm 1 mps 704 mmHg 89%
    04:00 +5°C° 0 mm 1 mps 704 mmHg 89%
    05:00 +6°C° 0 mm 1 mps 704 mmHg 84%
    06:00 +6°C° 0 mm 1 mps 705 mmHg 80%
    07:00 +5°C° 0 mm 0 mps 705 mmHg 76%
    08:00 +8°C° 0 mm 1 mps 705 mmHg 66%
    09:00 +9°C° 0 mm 1 mps 705 mmHg 56%
    10:00 +10°C° 0 mm 2 mps 705 mmHg 46%
    11:00 +12°C° 0 mm 2 mps 704 mmHg 41%
    12:00 +13°C° 0 mm 2 mps 703 mmHg 36%
    13:00 +14°C° 0 mm 2 mps 702 mmHg 31%
    14:00 +14°C° 0 mm 2 mps 702 mmHg 31%
    15:00 +14°C° 0 mm 2 mps 702 mmHg 32%
    16:00 +14°C° 0 mm 2 mps 702 mmHg 32%
    17:00 +13°C° 0 mm 2 mps 702 mmHg 36%
    18:00 +12°C° 0 mm 2 mps 702 mmHg 39%
    19:00 +10°C° 0 mm 2 mps 702 mmHg 43%
    20:00 +10°C° 0 mm 2 mps 702 mmHg 41%
    21:00 +9°C° 0 mm 2 mps 702 mmHg 40%
    22:00 +9°C° 0 mm 2 mps 703 mmHg 39%
    23:00 +9°C° 0 mm 2 mps 702 mmHg 37%

    23 May, Thursday

    Time Temperature Precipitation Wind Pressure Humidity
    00:00 +8°C° 0 mm 2 mps 702 mmHg 35%
    01:00 +8°C° 0 mm 2 mps 702 mmHg 32%
    02:00 +8°C° 0 mm 2 mps 701 mmHg 31%
    03:00 +7°C° 0 mm 2 mps 701 mmHg 30%
    04:00 +8°C° 0 mm 1 mps 701 mmHg 28%
    05:00 +8°C° 0 mm 1 mps 701 mmHg 27%
    06:00 +7°C° 0 mm 2 mps 701 mmHg 27%
    07:00 +8°C° 0 mm 2 mps 701 mmHg 26%
    08:00 +12°C° 0 mm 2 mps 701 mmHg 22%
    09:00 +14°C° 0 mm 2 mps 701 mmHg 18%
    10:00 +17°C° 0 mm 3 mps 702 mmHg 14%
    11:00 +19°C° 0 mm 3 mps 701 mmHg 12%
    12:00 +20°C° 0 mm 4 mps 700 mmHg 11%
    13:00 +21°C° 0 mm 4 mps 700 mmHg 9%
    14:00 +20°C° 0 mm 4 mps 699 mmHg 10%
    15:00 +20°C° 0 mm 4 mps 699 mmHg 11%
    16:00 +19°C° 0 mm 3 mps 699 mmHg 11%
    17:00 +17°C° 0 mm 3 mps 699 mmHg 13%
    18:00 +16°C° 0 mm 3 mps 699 mmHg 15%
    19:00 +14°C° 0 mm 2 mps 699 mmHg 16%
    20:00 +13°C° 0 mm 2 mps 699 mmHg 18%
    21:00 +13°C° 0 mm 2 mps 699 mmHg 20%
    22:00 +12°C° 0 mm 2 mps 699 mmHg 22%
    23:00 +10°C° 0 mm 2 mps 698 mmHg 23%

    24 May, Friday

    Time Temperature Precipitation Wind Pressure Humidity
    00:00 +11°C° 0 mm 1 mps 697 mmHg 25%
    01:00 +10°C° 0 mm 1 mps 697 mmHg 26%
    02:00 +10°C° 0 mm 1 mps 697 mmHg 26%
    03:00 +10°C° 0 mm 1 mps 696 mmHg 26%
    04:00 +9°C° 0 mm 1 mps 696 mmHg 26%
    05:00 +9°C° 0 mm 1 mps 696 mmHg 25%
    06:00 +10°C° 0 mm 1 mps 696 mmHg 25%
    07:00 +10°C° 0 mm 1 mps 696 mmHg 25%
    08:00 +12°C° 0 mm 2 mps 696 mmHg 22%
    09:00 +14°C° 0 mm 2 mps 696 mmHg 20%
    10:00 +16°C° 0 mm 2 mps 696 mmHg 17%
    11:00 +18°C° 0 mm 3 mps 696 mmHg 16%
    12:00 +19°C° 0 mm 3 mps 695 mmHg 15%
    13:00 +20°C° 0 mm 3 mps 694 mmHg 14%
    14:00 +20°C° 0 mm 3 mps 694 mmHg 14%
    15:00 +19°C° 0 mm 3 mps 694 mmHg 15%
    16:00 +19°C° 0 mm 2 mps 694 mmHg 16%
    17:00 +17°C° 0 mm 2 mps 694 mmHg 17%
    18:00 +16°C° 0 mm 1 mps 694 mmHg 18%
    19:00 +15°C° 0 mm 1 mps 694 mmHg 19%
    20:00 +15°C° 0 mm 1 mps 693 mmHg 22%
    21:00 +14°C° 0 mm 1 mps 693 mmHg 25%
    22:00 +14°C° 0 mm 1 mps 693 mmHg 27%
    23:00 +14°C° 0 mm 2 mps 693 mmHg 28%

    25 May, Saturday

    Time Temperature Precipitation Wind Pressure Humidity
    00:00 +14°C° 0 mm 2 mps 692 mmHg 29%
    01:00 +13°C° 0 mm 2 mps 692 mmHg 29%
    02:00 +13°C° 0 mm 2 mps 691 mmHg 30%
    03:00 +13°C° 0 mm 2 mps 691 mmHg 30%
    04:00 +12°C° 0 mm 3 mps 691 mmHg 31%
    05:00 +12°C° 0 mm 3 mps 691 mmHg 29%
    06:00 +12°C° 0 mm 3 mps 691 mmHg 28%
    07:00 +12°C° 0 mm 3 mps 692 mmHg 27%
    08:00 +16°C° 0 mm 3 mps 692 mmHg 22%
    09:00 +18°C° 0 mm 3 mps 692 mmHg 17%
    10:00 +21°C° 0 mm 4 mps 693 mmHg 12%
    11:00 +22°C° 0 mm 4 mps 692 mmHg 10%
    12:00 +23°C° 0 mm 4 mps 692 mmHg 8%
    13:00 +26°C° 0 mm 5 mps 692 mmHg 6%
    14:00 +25°C° 0 mm 4 mps 692 mmHg 8%
    15:00 +23°C° 0 mm 4 mps 692 mmHg 9%
    16:00 +22°C° 0 mm 3 mps 692 mmHg 11%
    17:00 +20°C° 0 mm 3 mps 692 mmHg 12%
    18:00 +18°C° 0 mm 4 mps 693 mmHg 14%
    19:00 +17°C° 0 mm 4 mps 693 mmHg 16%
    20:00 +15°C° 0 mm 5 mps 693 mmHg 17%
    21:00 +15°C° 0 mm 5 mps 693 mmHg 18%
    22:00 +14°C° 0 mm 6 mps 694 mmHg 20%
    23:00 +14°C° 0 mm 5 mps 694 mmHg 20%
    Show more